Greenville, MS

7:39 PM CDT on May 28, 2017 (GMT -0500)
Mid Delta Regional

Weather History for KGLH - November, 2012

Change the Weather History Date:

Friday, November 9, 2012

  Actual Average Record
Temperature  
Mean Temperature 58 °F 56 °F  
Max Temperature 73 °F 68 °F 84 °F (1942)
Min Temperature 42 °F 45 °F 23 °F (1991)
Degree Days  
Heating Degree Days 7 9  
Month to date heating degree days 87 73  
Since 1 July heating degree days 226 187  
Cooling Degree Days 0 1  
Month to date cooling degree days 6 9  
Year to date cooling degree days 2444 2183  
Growing Degree Days 8 (Base 50)    
Moisture  
Dew Point 41 °F    
Average Humidity 60    
Maximum Humidity 89    
Minimum Humidity 31    
Precipitation  
Precipitation 0.00 in 0.13 in 3.12 in (1979)
Month to date precipitation 0.08 1.26  
Year to date precipitation 35.31 43.22  
Sea Level Pressure  
Sea Level Pressure 30.19 in    
Wind  
Wind Speed 9 mph (SSE)    
Max Wind Speed 16 mph    
Max Gust Speed 18 mph    
Visibility 10 miles    
Events      
T = Trace of Precipitation, MM = Missing Value Source: NWS Daily Summary

Daily Weather History Graph

Daily Weather History Graph

Search for Another Location

Airport or City:

Trip Planner

Search our weather history database for the weather conditions in past years. The results will help you decide how hot, cold, wet, or windy it might be!

Date:

Astronomy

Nov. 09, 2012 Rise Set
Actual Time 6:30 AM CST 5:04 PM CST
Civil Twilight 6:04 AM CST 5:31 PM CST
Nautical Twilight 5:34 AM CST 6:00 PM CST
Astronomical Twilight 5:05 AM CST 6:30 PM CST
Moon 1:42 AM CST (11/9) 2:06 PM CST (11/9)
Length of Visible Light 11h 26m
Length of Day
10h 34m
Waning Crescent, 23% of the Moon is Illuminated
Nov 9
Waning Crescent
Nov 13
New
Nov 20
First Quarter
Nov 28
Full
Dec 6
Last Quarter

Hourly Weather History & Observations

Time (CST) Temp. Windchill Dew Point Humidity Pressure Visibility Wind Dir Wind Speed Gust Speed Precip Events Conditions
12:53 AM 43.0 °F 38.8 °F 36.0 °F 76% 30.19 in 10.0 mi South 6.9 mph - N/A   Clear
1:53 AM 44.1 °F 40.8 °F 37.9 °F 79% 30.19 in 10.0 mi SSE 5.8 mph - N/A   Clear
2:53 AM 46.9 °F - 39.0 °F 74% 30.19 in 10.0 mi South 5.8 mph - N/A   Clear
3:53 AM 45.0 °F 42.6 °F 37.9 °F 76% 30.20 in 10.0 mi SSE 4.6 mph - N/A   Clear
4:53 AM 45.0 °F 40.6 °F 39.0 °F 80% 30.21 in 10.0 mi South 8.1 mph - N/A   Clear
5:53 AM 43.0 °F 41.3 °F 37.9 °F 82% 30.23 in 10.0 mi SE 3.5 mph - N/A   Clear
6:53 AM 43.0 °F 40.3 °F 39.0 °F 86% 30.25 in 10.0 mi SSE 4.6 mph - N/A   Clear
7:53 AM 50.0 °F - 42.1 °F 74% 30.27 in 10.0 mi South 5.8 mph - N/A   Clear
8:53 AM 55.9 °F - 44.1 °F 64% 30.27 in 10.0 mi South 10.4 mph - N/A   Clear
9:53 AM 62.1 °F - 43.0 °F 50% 30.27 in 10.0 mi South 15.0 mph - N/A   Clear
10:53 AM 64.9 °F - 44.1 °F 47% 30.25 in 10.0 mi South 12.7 mph - N/A   Clear
11:53 AM 69.1 °F - 43.0 °F 39% 30.22 in 10.0 mi South 10.4 mph 17.3 mph N/A   Clear
12:53 PM 70.0 °F - 42.1 °F 36% 30.19 in 10.0 mi South 10.4 mph - N/A   Clear
1:53 PM 73.0 °F - 41.0 °F 31% 30.16 in 10.0 mi South 10.4 mph 17.3 mph N/A   Clear
2:53 PM 72.0 °F - 39.9 °F 31% 30.15 in 10.0 mi SE 11.5 mph - N/A   Clear
3:53 PM 72.0 °F - 39.9 °F 31% 30.15 in 10.0 mi South 11.5 mph - N/A   Clear
4:53 PM 66.9 °F - 39.0 °F 36% 30.14 in 10.0 mi SSE 9.2 mph - N/A   Clear
5:53 PM 63.0 °F - 39.0 °F 41% 30.15 in 10.0 mi SE 10.4 mph - N/A   Clear
6:53 PM 63.0 °F - 41.0 °F 45% 30.15 in 10.0 mi SSE 10.4 mph - N/A   Clear
7:53 PM 61.0 °F - 42.1 °F 50% 30.16 in 10.0 mi SSE 10.4 mph - N/A   Clear
8:53 PM 60.1 °F - 44.1 °F 55% 30.16 in 10.0 mi South 9.2 mph - N/A   Clear
9:53 PM 57.0 °F - 45.0 °F 64% 30.17 in 10.0 mi South 9.2 mph - N/A   Clear
10:53 PM 55.4 °F - 46.4 °F 72% 30.15 in 10.0 mi South 9.2 mph - N/A   Clear
11:53 PM 55.9 °F - 48.0 °F 75% 30.17 in 10.0 mi SSE 8.1 mph - N/A   Clear